Location: Góry Miechowskie
(50.3599°N, 20.1803°E)
Time: 15:33:03
(UTC+00:00)

Vanguard 1 Rocket - All Passes

Search period start: 13 September 2024 00:00
Search period end: 23 September 2024 00:00
Orbit: 649 x 4220 km, 34.3° (Epoch: 12 September)

Date Brightness Start Highest point End Pass type
(mag) Time Alt. Az. Time Alt. Az. Time Alt. Az.
13 Sep - 01:01:59 10° S 01:13:40 25° SE 01:30:11 10° E visible
13 Sep - 03:23:10 10° SW 03:40:07 47° SSE 04:03:43 10° E visible
13 Sep - 05:48:47 10° WSW 06:09:47 51° S 06:33:19 10° ESE daylight
13 Sep - 08:17:55 10° W 08:39:07 37° SW 08:58:21 10° SSE daylight
13 Sep - 10:55:14 10° W 11:05:01 14° WSW 11:13:54 10° SSW daylight
13 Sep - 23:54:26 10° SSE 00:01:39 15° ESE 00:10:42 10° E visible
14 Sep - 02:11:50 10° SSW 02:26:12 39° SSE 02:47:34 10° E visible
14 Sep - 04:35:43 10° WSW 04:54:38 52° S 05:18:56 10° ESE daylight
14 Sep - 07:03:04 10° W 07:24:33 44° SSW 07:46:19 10° SE daylight
14 Sep - 09:35:05 10° W 09:52:11 23° SW 10:07:24 10° S daylight
15 Sep - 01:01:32 10° S 01:13:12 29° SE 01:30:32 10° E visible
15 Sep - 03:23:27 10° SW 03:39:54 48° SSE 04:03:38 10° ESE visible
15 Sep - 05:49:11 10° WSW 06:09:31 49° SSW 06:33:04 10° SE daylight
15 Sep - 08:18:30 10° W 08:38:30 33° SW 08:57:26 10° SSE daylight
15 Sep - 11:03:44 10° WSW 11:04:06 10° WSW 11:04:27 10° WSW daylight
15 Sep - 23:52:55 10° SSE 00:01:05 18° SE 00:12:07 10° E visible
16 Sep - 02:11:58 10° SW 02:25:55 41° SSE 02:47:31 10° E visible
16 Sep - 04:36:09 10° WSW 04:54:26 51° S 05:18:44 10° ESE daylight
16 Sep - 07:03:33 10° W 07:24:06 41° SSW 07:45:42 10° SSE daylight
16 Sep - 09:36:35 10° W 09:51:22 19° SW 10:05:08 10° SSW daylight
17 Sep - 01:01:24 10° SSW 01:12:50 32° SE 01:30:41 10° E visible
17 Sep - 03:23:50 10° WSW 03:39:44 49° S 04:03:26 10° ESE visible
17 Sep - 05:49:41 10° W 06:09:13 47° SSW 06:32:38 10° SE daylight
17 Sep - 08:19:19 10° W 08:37:50 28° SW 08:56:05 10° S daylight
17 Sep - 23:52:05 10° S 00:00:39 21° SE 00:12:56 10° E visible
18 Sep - 02:12:16 10° SW 02:25:44 43° SSE 02:47:21 10° E visible
18 Sep - 04:36:39 10° WSW 04:54:16 50° S 05:18:22 10° ESE daylight
18 Sep - 07:04:10 10° W 07:23:37 37° SSW 07:44:46 10° SSE daylight
18 Sep - 09:39:04 10° W 09:50:32 15° SW 10:01:39 10° SSW daylight
18 Sep - 22:47:28 10° SE 22:49:12 10° ESE 22:51:03 10° ESE visible
19 Sep - 01:01:28 10° SSW 01:12:36 34° SSE 01:30:40 10° E visible
19 Sep - 03:24:20 10° WSW 03:39:39 49° S 04:03:07 10° ESE visible
19 Sep - 05:50:15 10° W 06:08:55 43° SSW 06:31:56 10° SE daylight
19 Sep - 08:20:28 10° W 08:37:09 24° SW 08:54:09 10° S daylight
19 Sep - 23:51:42 10° S 00:00:19 24° SE 00:13:24 10° E visible
20 Sep - 02:12:41 10° SW 02:25:40 45° SSE 02:47:06 10° ESE visible
20 Sep - 04:37:13 10° WSW 04:54:08 47° S 05:17:50 10° SE daylight
20 Sep - 07:04:57 10° W 07:23:07 32° SW 07:43:28 10° SSE daylight
20 Sep - 09:44:27 10° WSW 09:49:43 11° WSW 09:54:57 10° SW daylight
20 Sep - 22:44:16 10° SSE 22:48:48 13° SE 22:54:25 10° ESE visible
21 Sep - 01:01:43 10° SW 01:12:29 37° SSE 01:30:33 10° E visible
21 Sep - 03:24:54 10° WSW 03:39:37 48° S 04:02:41 10° ESE visible
21 Sep - 05:50:56 10° W 06:08:37 39° SSW 06:30:58 10° SSE daylight
21 Sep - 08:22:10 10° W 08:36:28 20° SW 08:51:26 10° S daylight
21 Sep - 23:51:37 10° SSW 00:00:09 26° SE 00:13:38 10° E visible
22 Sep - 02:13:12 10° SW 02:25:41 45° SSE 02:46:45 10° ESE visible
22 Sep - 04:37:53 10° WSW 04:54:01 44° SSW 05:17:06 10° SE daylight
22 Sep - 07:05:59 10° W 07:22:37 28° SW 07:41:42 10° S daylight
22 Sep - 22:43:06 10° SSE 22:48:33 16° SE 22:55:49 10° E visible
